Total_Precipitation_Accumulation
0.03 0.02 0.02 0.02 0.05 0.08 0.11 0.08 0.06 0.02 0.05 0.14 0.12 0.08 0.04 0.02 0.00 0.00 0.00 0.01 0.02 0.04 0.05 0.07 0.04 0.01 0.00 0.00 0.00 0.00 0.00 0.00 0.00 0.00 0.00 0.00 0.00 0.00 0.00 0.00 0.00 0.00 0.00 0.00
0.06 0.06 0.05 0.04 0.06 0.12 0.13 0.12 0.06 0.01 0.05 0.16 0.12 0.06 0.02 0.00 0.00 0.01 0.02 0.03 0.03 0.03 0.05 0.08 0.02 0.01 0.00 0.00 0.00 0.00 0.00 0.00 0.00 0.00 0.00 0.00 0.00 0.00 0.00 0.00 0.00 0.00 0.00 0.00
0.08 0.05 0.04 0.05 0.07 0.14 0.22 0.14 0.07 0.05 0.05 0.03 0.02 0.02 0.01 0.00 0.00 0.01 0.01 0.02 0.03 0.05 0.04 0.03 0.05 0.01 0.00 0.00 0.00 0.00 0.00 0.02 0.00 0.00 0.00 0.00 0.00 0.00 0.00 0.00 0.02 0.00 0.00 0.00
0.08 0.06 0.04 0.04 0.07 0.17 0.35 0.24 0.08 0.01 0.01 0.01 0.00 0.01 0.01 0.01 0.01 0.00 0.00 0.00 0.01 0.01 0.06 0.05 0.06 0.04 0.04 0.03 0.02 0.04 0.07 0.08 0.00 0.00 0.00 0.00 0.00 0.00 0.00 0.00 0.01 0.04 0.01 0.00
0.09 0.09 0.07 0.07 0.05 0.17 0.44 0.30 0.14 0.05 0.02 0.00 0.00 0.01 0.02 0.01 0.01 0.01 0.00 0.00 0.00 0.01 0.04 0.02 0.01 0.03 0.03 0.02 0.01 0.03 0.06 0.11 0.02 0.01 0.00 0.00 0.00 0.00 0.00 0.00 0.00 0.00 0.00 0.00
0.06 0.08 0.09 0.08 0.09 0.18 0.21 0.15 0.10 0.10 0.08 0.02 0.01 0.00 0.00 0.00 0.00 0.02 0.00 0.00 0.01 0.01 0.01 0.01 0.02 0.04 0.04 0.05 0.03 0.04 0.10 0.09 0.06 0.03 0.00 0.00 0.01 0.00 0.00 0.00 0.00 0.00 0.00 0.00
0.07 0.07 0.09 0.09 0.09 0.17 0.16 0.09 0.12 0.25 0.35 0.15 0.04 0.00 0.00 0.00 0.00 0.00 0.00 0.00 0.01 0.00 0.00 0.00 0.00 0.00 0.00 0.01 0.02 0.06 0.17 0.20 0.27 0.12 0.05 0.07 0.00 0.00 0.00 0.00 0.00 0.00 0.00 0.00
0.08 0.10 0.10 0.10 0.10 0.13 0.24 0.27 0.23 0.25 0.29 0.15 0.06 0.01 0.00 0.00 0.00 0.01 0.00 0.00 0.00 0.00 0.02 0.09 0.09 0.02 0.00 0.00 0.00 0.00 0.03 0.17 0.36 0.27 0.15 0.04 0.00 0.00 0.00 0.00 0.00 0.00 0.00 0.00
0.09 0.11 0.14 0.13 0.14 0.15 0.19 0.22 0.34 0.61 0.58 0.23 0.03 0.03 0.01 0.01 0.01 0.01 0.01 0.00 0.01 0.03 0.06 0.14 0.13 0.02 0.00 0.00 0.00 0.00 0.02 0.07 0.33 0.38 0.29 0.07 0.00 0.00 0.00 0.00 0.00 0.00 0.00 0.00
0.08 0.11 0.12 0.15 0.15 0.16 0.24 0.22 0.17 0.57 0.94 0.36 0.03 0.07 0.05 0.01 0.03 0.07 0.01 0.00 0.03 0.12 0.27 0.32 0.13 0.03 0.00 0.00 0.00 0.00 0.03 0.09 0.21 0.22 0.38 0.16 0.01 0.00 0.00 0.00 0.00 0.00 0.00 0.00
0.07 0.09 0.12 0.16 0.20 0.22 0.34 0.32 0.14 0.33 0.68 0.41 0.11 0.09 0.07 0.03 0.03 0.10 0.07 0.18 0.26 0.29 0.43 0.32 0.19 0.09 0.01 0.01 0.00 0.00 0.00 0.02 0.05 0.07 0.19 0.10 0.00 0.00 0.00 0.00 0.00 0.00 0.00 0.00
0.04 0.05 0.07 0.12 0.19 0.35 0.63 0.63 0.23 0.26 0.62 0.63 0.14 0.04 0.05 0.08 0.11 0.17 0.25 0.18 0.08 0.16 0.27 0.27 0.20 0.18 0.10 0.02 0.00 0.00 0.00 0.00 0.00 0.00 0.01 0.00 0.00 0.00 0.00 0.00 0.00 0.00 0.00 0.00
0.04 0.03 0.05 0.09 0.13 0.25 0.47 0.52 0.44 0.60 0.81 0.59 0.29 0.09 0.02 0.02 0.05 0.13 0.32 0.37 0.21 0.24 0.17 0.25 0.31 0.33 0.15 0.09 0.03 0.00 0.00 0.00 0.00 0.00 0.00 0.00 0.00 0.00 0.00 0.00 0.00 0.00 0.00 0.00
0.06 0.06 0.06 0.07 0.11 0.22 0.41 0.47 0.33 0.50 0.74 0.70 0.29 0.06 0.02 0.02 0.02 0.07 0.14 0.14 0.14 0.17 0.25 0.41 0.40 0.26 0.10 0.04 0.00 0.00 0.00 0.00 0.00 0.00 0.00 0.00 0.00 0.00 0.00 0.00 0.00 0.00 0.00 0.00
0.06 0.08 0.08 0.08 0.14 0.25 0.30 0.29 0.30 0.21 0.49 0.65 0.27 0.10 0.04 0.02 0.02 0.07 0.13 0.16 0.20 0.27 0.31 0.40 0.25 0.11 0.10 0.09 0.05 0.01 0.00 0.00 0.00 0.00 0.00 0.00 0.00 0.00 0.00 0.00 0.00 0.00 0.00 0.00
0.04 0.05 0.06 0.10 0.17 0.29 0.26 0.28 0.19 0.16 0.29 0.66 0.42 0.13 0.02 0.00 0.01 0.07 0.13 0.18 0.21 0.24 0.25 0.20 0.12 0.03 0.03 0.15 0.06 0.00 0.00 0.00 0.00 0.00 0.00 0.00 0.00 0.00 0.00 0.00 0.00 0.00 0.00 0.00
0.06 0.06 0.07 0.13 0.26 0.45 0.50 0.28 0.09 0.09 0.16 0.52 0.58 0.29 0.11 0.06 0.05 0.09 0.12 0.15 0.19 0.21 0.27 0.23 0.14 0.04 0.07 0.16 0.02 0.00 0.00 0.00 0.00 0.00 0.00 0.00 0.00 0.00 0.00 0.00 0.00 0.00 0.00 0.00
0.14 0.13 0.15 0.25 0.44 0.60 0.50 0.30 0.15 0.15 0.47 0.58 0.54 0.24 0.07 0.06 0.06 0.07 0.08 0.11 0.13 0.17 0.16 0.09 0.03 0.03 0.07 0.04 0.00 0.00 0.00 0.00 0.00 0.00 0.00 0.00 0.00 0.00 0.00 0.00 0.00 0.00 0.00 0.00
0.29 0.32 0.35 0.51 0.58 0.51 0.54 0.30 0.16 0.16 0.49 0.76 0.32 0.07 0.04 0.04 0.06 0.07 0.09 0.08 0.11 0.09 0.05 0.02 0.01 0.03 0.01 0.00 0.00 0.00 0.00 0.00 0.00 0.00 0.00 0.00 0.00 0.00 0.00 0.00 0.00 0.00 0.00 0.00
0.35 0.63 0.62 0.61 0.64 0.41 0.25 0.26 0.33 0.37 0.40 0.30 0.18 0.06 0.06 0.04 0.05 0.10 0.07 0.09 0.08 0.08 0.02 0.01 0.04 0.01 0.00 0.00 0.00 0.00 0.00 0.00 0.00 0.00 0.00 0.00 0.00 0.00 0.00 0.00 0.00 0.00 0.00 0.00
0.34 0.51 0.43 0.36 0.27 0.20 0.23 0.22 0.18 0.21 0.17 0.11 0.09 0.06 0.07 0.09 0.08 0.09 0.10 0.10 0.06 0.03 0.01 0.01 0.00 0.00 0.00 0.00 0.00 0.00 0.00 0.00 0.00 0.00 0.00 0.00 0.00 0.00 0.00 0.00 0.00 0.00 0.00 0.00
0.07 0.04 0.09 0.08 0.08 0.10 0.13 0.11 0.04 0.03 0.03 0.03 0.03 0.06 0.06 0.11 0.08 0.10 0.11 0.04 0.03 0.01 0.00 0.00 0.00 0.00 0.00 0.00 0.00 0.00 0.00 0.00 0.00 0.00 0.00 0.00 0.00 0.00 0.00 0.00 0.00 0.00 0.00 0.00
0.03 0.07 0.11 0.07 0.04 0.04 0.03 0.02 0.01 0.00 0.00 0.01 0.02 0.05 0.06 0.08 0.07 0.07 0.06 0.05 0.03 0.00 0.00 0.00 0.00 0.00 0.00 0.00 0.00 0.00 0.00 0.00 0.00 0.00 0.00 0.00 0.00 0.00 0.00 0.00 0.00 0.00 0.00 0.00
0.02 0.02 0.01 0.02 0.02 0.00 0.00 0.00 0.00 0.01 0.00 0.01 0.03 0.05 0.05 0.04 0.04 0.04 0.03 0.03 0.00 0.00 0.00 0.00 0.00 0.00 0.00 0.00 0.00 0.00 0.00 0.00 0.00 0.00 0.00 0.00 0.00 0.00 0.00 0.00 0.00 0.00 0.00 0.00
0.01 0.00 0.01 0.00 0.01 0.01 0.01 0.01 0.02 0.03 0.02 0.03 0.03 0.03 0.02 0.02 0.03 0.01 0.00 0.00 0.00 0.00 0.00 0.00 0.00 0.00 0.00 0.00 0.00 0.00 0.00 0.00 0.00 0.00 0.00 0.00 0.00 0.00 0.00 0.00 0.00 0.00 0.00 0.00
0.00 0.01 0.00 0.01 0.01 0.03 0.02 0.02 0.02 0.02 0.01 0.00 0.00 0.00 0.00 0.00 0.00 0.00 0.00 0.00 0.00 0.00 0.00 0.00 0.00 0.00 0.00 0.00 0.00 0.00 0.00 0.00 0.00 0.00 0.00 0.00 0.00 0.00 0.00 0.00 0.00 0.00 0.00 0.00
0.00 0.02 0.02 0.01 0.00 0.02 0.03 0.03 0.02 0.00 0.00 0.00 0.00 0.00 0.00 0.00 0.00 0.00 0.00 0.00 0.00 0.01 0.01 0.00 0.00 0.00 0.00 0.00 0.00 0.00 0.00 0.00 0.00 0.00 0.00 0.00 0.00 0.00 0.00 0.00 0.00 0.00 0.00 0.01